Location: ????????
(38.4362°N, 22.8767°E)
Time: 10:13:08
(UTC+00:00)

SL-16 R/B - Visible Passes

Search period start: 09 November 2025 00:00
Search period end: 19 November 2025 00:00
Orbit: 839 x 848 km, 71.0° (Epoch: 08 November)

Date Brightness Start Highest point End Pass type
(mag) Time Alt. Az. Time Alt. Az. Time Alt. Az.
09 Nov 2.7 04:16:15 10° S 04:21:51 66° ESE 04:27:30 10° NNE visible
10 Nov 2.8 04:01:49 10° S 04:07:25 63° ESE 04:13:02 10° NNE visible
11 Nov 2.8 03:47:24 10° S 03:52:58 60° ESE 03:58:34 10° NNE visible
12 Nov 2.9 03:32:59 10° S 03:38:31 57° ESE 03:44:05 10° NNE visible
13 Nov 2.9 03:18:34 10° S 03:24:04 55° ESE 03:29:37 10° NNE visible
14 Nov 3.0 03:04:09 10° S 03:09:38 52° ESE 03:15:08 10° NNE visible
15 Nov 3.0 02:49:44 10° S 02:55:11 50° ESE 03:00:40 10° NNE visible
15 Nov 3.3 04:35:05 10° WSW 04:39:33 23° NW 04:44:01 10° N visible
16 Nov 3.1 02:35:20 10° S 02:40:44 48° ESE 02:46:11 10° NE visible
16 Nov 3.2 04:20:31 10° WSW 04:25:03 24° NW 04:29:37 10° N visible
17 Nov 3.1 02:24:43 36° SSE 02:26:18 45° ESE 02:31:42 10° NE visible
17 Nov 3.2 04:06:45 13° WSW 04:10:35 25° WNW 04:15:14 10° N visible
18 Nov 3.3 02:12:39 41° E 02:12:39 41° E 02:17:13 10° NE visible
18 Nov 3.1 03:54:37 23° W 03:56:05 26° WNW 04:00:48 10° N visible
